FW8079 Weather Reports


time (UTC)temp
F
wind
direction
speed
knots
gust
knots
rain 1hr
in
rain 24hr
in
rain mn
in
humidity
%
barometer
mb
20260505041706 59 9 0.9 1.7 0.00 0.00 0.00 91 1008.0
20260505041203 59 37 1.7 1.7 0.00 0.00 0.00 91 1008.2
20260505040701 59 7 0.0 1.7 0.00 0.00 0.00 91 1008.3
20260505040158 59 43 0.9 1.7 0.00 0.00 0.00 90 1008.1
20260505035654 59 45 1.7 1.7 0.00 0.00 0.00 90 1008.0
20260505035150 59 5 0.0 1.7 0.00 0.00 0.00 90 1007.9
20260505034647 59 334 1.7 1.7 0.00 0.00 0.00 90 1007.9
20260505034144 59 21 1.7 1.7 0.00 0.00 0.00 89 1008.0
20260505033640 59 30 1.7 1.7 0.00 0.00 0.00 90 1007.8
20260505033139 60 351 0.9 1.7 0.00 0.00 0.00 89 1008.1
20260505032636 60 31 0.0 1.7 0.00 0.00 0.00 89 1007.8
20260505032127 60 48 0.0 1.7 0.00 0.00 0.00 88 1007.9
20260505031624 60 37 0.0 1.7 0.00 0.00 0.00 88 1007.9
20260505031120 60 78 0.9 1.7 0.00 0.00 0.00 87 1007.9
20260505030618 61 32 0.0 1.7 0.00 0.00 0.00 87 1008.0
20260505030113 61 73 0.9 1.7 0.00 0.00 0.00 87 1008.1
20260505025609 61 60 1.7 1.7 0.00 0.00 0.00 86 1008.2
20260505025109 61 16 1.7 2.6 0.00 0.00 0.00 86 1008.0
20260505024605 61 9 0.9 2.6 0.00 0.00 0.00 86 1008.0
20260505024103 62 18 0.9 1.7 0.00 0.00 0.00 85 1007.7
20260505023600 62 89 1.7 2.6 0.00 0.00 0.00 85 1008.0
20260505023057 62 125 1.7 2.6 0.00 0.00 0.00 85 1008.0
20260505022554 62 68 0.9 2.6 0.00 0.00 0.00 84 1008.0
20260505022051 62 82 1.7 2.6 0.00 0.00 0.00 84 1008.0
20260505021548 62 1 1.7 2.6 0.00 0.00 0.00 84 1007.9
20260505021045 62 102 1.7 2.6 0.00 0.00 0.00 83 1007.8
20260505020544 62 101 3.5 3.5 0.00 0.00 0.00 83 1007.8
20260505020042 62 80 2.6 3.5 0.00 0.00 0.00 82 1007.8
20260505015539 63 305 1.7 2.6 0.00 0.00 0.00 81 1008.0
20260505015035 63 80 1.7 3.5 0.00 0.00 0.00 80 1007.7
20260505014532 64 67 1.7 3.5 0.00 0.00 0.00 77 1007.7
20260505014030 63 114 1.7 3.5 0.00 0.00 0.00 77 1007.8
20260505013527 64 61 1.7 2.6 0.00 0.00 0.00 76 1007.7
20260505013024 63 64 1.7 1.7 0.00 0.00 0.00 77 1007.7
20260505012522 63 93 2.6 2.6 0.00 0.00 0.00 77 1007.8
20260505012019 63 67 0.9 1.7 0.00 0.00 0.00 76 1007.6
20260505011514 63 20 1.7 1.7 0.00 0.00 0.00 76 1007.7
20260505011011 63 54 1.7 1.7 0.00 0.00 0.00 75 1007.6
20260505010507 63 57 1.7 1.7 0.00 0.00 0.00 76 1007.3
20260505010004 63 39 0.0 0.9 0.00 0.00 0.00 75 1007.3
20260505005500 63 353 0.0 1.7 0.00 0.00 0.00 75 1007.3
20260505004958 64 23 0.0 1.7 0.00 0.00 0.00 75 1007.4
20260505004454 64 168 0.0 2.6 0.00 0.00 0.00 74 1007.4
20260505003951 64 56 0.9 2.6 0.00 0.00 0.00 74 1007.7
20260505003448 64 88 0.9 1.7 0.00 0.00 0.00 75 1007.3
20260505002944 64 58 0.9 2.6 0.00 0.00 0.00 75 1007.3
20260505002441 64 56 1.7 1.7 0.00 0.00 0.00 76 1007.5
20260505001939 64 66 1.7 2.6 0.00 0.00 0.00 76 1007.5
20260505001436 64 103 1.7 1.7 0.00 0.00 0.00 75 1007.4
20260505000933 64 56 1.7 1.7 0.00 0.00 0.00 75 1007.3
20260505000432 64 100 1.7 2.6 0.00 0.00 0.00 74 1007.2
20260504235928 64 92 0.9 1.7 0.00 0.00 0.00 74 1007.3
20260504235425 65 76 1.7 1.7 0.00 0.00 0.00 74 1007.4
20260504234921 65 105 1.7 1.7 0.00 0.00 0.00 74 1007.3
20260504234419 65 101 1.7 1.7 0.00 0.00 0.00 74 1007.2
20260504233915 65 43 0.0 1.7 0.00 0.00 0.00 74 1007.3
20260504233411 66 89 1.7 2.6 0.00 0.00 0.00 73 1007.2
20260504232908 66 57 1.7 2.6 0.00 0.00 0.00 72 1006.9
20260504232405 66 75 1.7 3.5 0.00 0.00 0.00 72 1007.0
20260504231902 66 77 1.7 2.6 0.00 0.00 0.00 71 1007.2
20260504231358 67 154 1.7 2.6 0.00 0.00 0.00 70 1007.2
20260504230855 66 111 3.5 3.5 0.00 0.00 0.00 71 1007.2
20260504230352 66 126 1.7 3.5 0.00 0.00 0.00 71 1007.2
20260504225851 66 129 0.9 3.5 0.00 0.00 0.00 70 1007.1
20260504225347 66 181 3.5 3.5 0.00 0.00 0.00 70 1007.3
20260504224845 66 103 3.5 5.2 0.00 0.00 0.00 69 1007.1
20260504224341 66 115 0.9 5.2 0.00 0.00 0.00 69 1007.4
20260504223838 67 105 1.7 3.5 0.00 0.00 0.00 68 1007.3
20260504223333 67 204 3.5 7.0 0.00 0.00 0.00 66 1007.1
20260504222830 67 34 1.7 7.0 0.00 0.00 0.00 65 1007.0
20260504222327 66 58 3.5 8.7 0.00 0.00 0.00 65 1007.2
20260504221826 67 114 5.2 7.0 0.00 0.00 0.00 65 1007.3
20260504221322 67 122 1.7 7.8 0.00 0.00 0.00 64 1007.3
20260504220819 67 166 1.7 5.2 0.00 0.00 0.00 62 1007.5
20260504220316 67 161 5.2 12.2 0.00 0.00 0.00 59 1007.2
20260504215813 68 127 1.7 11.3 0.00 0.00 0.00 55 1007.2
20260504215309 68 147 3.5 6.1 0.00 0.00 0.00 54 1007.4
20260504214805 68 115 7.0 10.4 0.00 0.00 0.00 53 1007.3
20260504214303 69 147 1.7 6.1 0.00 0.00 0.00 54 1007.1
20260504213759 69 355 1.7 3.5 0.00 0.00 0.00 55 1007.3
20260504213255 69 132 6.1 9.6 0.00 0.00 0.00 55 1007.2
20260504212753 69 122 1.7 6.1 0.00 0.00 0.00 55 1007.4
20260504212249 69 103 3.5 4.3 0.00 0.00 0.00 55 1007.2
20260504211746 69 9 0.0 4.3 0.00 0.00 0.00 54 1007.4
20260504211242 69 114 5.2 7.8 0.00 0.00 0.00 55 1007.3
20260504210740 69 107 6.1 7.0 0.00 0.00 0.00 55 1007.3
20260504210237 69 83 3.5 9.6 0.00 0.00 0.00 56 1007.4
20260504205734 69 132 2.6 5.2 0.00 0.00 0.00 55 1007.4
20260504205232 69 111 8.7 8.7 0.00 0.00 0.00 56 1007.4
20260504204729 69 119 3.5 7.0 0.00 0.00 0.00 56 1007.4
20260504204227 69 112 2.6 5.2 0.00 0.00 0.00 55 1007.3
20260504203727 69 77 0.9 8.7 0.00 0.00 0.00 54 1007.6
20260504203223 69 122 1.7 7.8 0.00 0.00 0.00 55 1007.6
20260504202718 69 63 2.6 9.6 0.00 0.00 0.00 54 1007.6
20260504202215 69 239 6.1 8.7 0.00 0.00 0.00 52 1007.7
20260504201712 69 112 4.3 5.2 0.00 0.00 0.00 51 1007.7
20260504201210 70 113 1.7 7.8 0.00 0.00 0.00 51 1007.8
20260504200707 70 115 5.2 9.6 0.00 0.00 0.00 51 1007.8
20260504200203 70 145 2.6 9.6 0.00 0.00 0.00 49 1008.0
20260504195659 70 98 4.3 5.2 0.00 0.00 0.00 51 1008.1
20260504195155 71 126 4.3 5.2 0.00 0.00 0.00 49 1008.1
20260504194653 71 104 6.1 7.0 0.00 0.00 0.00 48 1007.9
20260504194148 71 150 1.7 6.1 0.00 0.00 0.00 49 1007.9
20260504193645 71 180 0.9 5.2 0.00 0.00 0.00 50 1008.2
20260504193143 73 114 5.2 7.0 0.00 0.00 0.00 47 1008.3
20260504192641 72 115 7.8 12.2 0.00 0.00 0.00 48 1008.3
20260504192139 72 142 1.7 4.3 0.00 0.00 0.00 47 1008.3
20260504191637 72 111 1.7 7.8 0.00 0.00 0.00 46 1008.3
20260504191133 73 134 4.3 7.0 0.00 0.00 0.00 45 1008.7
20260504190629 73 152 2.6 7.0 0.00 0.00 0.00 45 1008.6
20260504190126 73 143 2.6 7.0 0.00 0.00 0.00 46 1008.8
20260504185622 73 117 4.3 5.2 0.00 0.00 0.00 44 1008.5
20260504185119 73 125 5.2 8.7 0.00 0.00 0.00 44 1008.7
20260504184614 72 106 1.7 4.3 0.00 0.00 0.00 45 1008.9
20260504184110 73 87 2.6 4.3 0.00 0.00 0.00 45 1009.0
20260504183607 72 110 5.2 6.1 0.00 0.00 0.00 46 1009.0
20260504183105 71 110 5.2 5.2 0.00 0.00 0.00 46 1009.0
20260504182602 71 116 3.5 7.8 0.00 0.00 0.00 45 1009.1
20260504182059 70 122 4.3 9.6 0.00 0.00 0.00 46 1009.2
20260504181556 71 113 5.2 5.2 0.00 0.00 0.00 43 1009.4
20260504181054 70 137 3.5 7.0 0.00 0.00 0.00 44 1009.2
20260504180553 70 115 4.3 7.0 0.00 0.00 0.00 44 1009.4
20260504180052 69 109 7.8 8.7 0.00 0.00 0.00 44 1009.4
20260504175548 70 111 4.3 6.1 0.00 0.00 0.00 45 1009.4
20260504175045 70 104 4.3 9.6 0.00 0.00 0.00 44 1009.7
20260504174543 70 144 2.6 7.8 0.00 0.00 0.00 44 1009.7
20260504174040 71 122 2.6 4.3 0.00 0.00 0.00 41 1009.6
20260504173536 70 188 3.5 5.2 0.00 0.00 0.00 40 1009.7
20260504173034 70 119 1.7 4.3 0.00 0.00 0.00 45 1009.9
20260504172530 70 113 3.5 5.2 0.00 0.00 0.00 45 1009.9
20260504172027 70 130 1.7 5.2 0.00 0.00 0.00 43 1009.9
20260504171524 70 83 1.7 5.2 0.00 0.00 0.00 47 1010.0
20260504171021 69 118 4.3 5.2 0.00 0.00 0.00 47 1009.9
20260504170516 69 108 5.2 7.0 0.00 0.00 0.00 45 1009.9
20260504160437 68 122 1.7 7.8 0.00 0.00 0.00 47 1010.7
20260504150900 67 174 1.7 5.2 0.00 0.00 0.00 40 1010.9
20260504150357 67 135 0.0 2.6 0.00 0.00 0.00 42 1011.1
20260504141327 63 324 1.7 3.5 0.00 0.00 0.00 53 1011.7
20260504140823 63 131 0.0 3.5 0.00 0.00 0.00 50 1011.6
20260504140319 62 0 1.7 2.6 0.00 0.00 0.00 50 1011.4
20260504130748 59 66 2.6 2.6 0.00 0.00 0.00 55 1011.8
20260504130244 59 290 2.6 8.7 0.00 0.00 0.00 56 1011.8
20260504120208 56 82 2.6 2.6 0.00 0.00 0.00 60 1012.0
20260504110635 53 28 0.0 3.5 0.00 0.00 0.00 63 1012.5
20260504110131 53 269 0.0 2.6 0.00 0.00 0.00 63 1012.4
20260504100551 53 141 1.7 5.2 0.00 0.00 0.00 68 1012.5
20260504081945 54 11 0.0 2.6 0.00 0.00 0.00 64 1012.6
20260504081442 54 20 0.9 2.6 0.00 0.00 0.00 64 1012.5
20260504080938 54 94 0.9 1.7 0.00 0.00 0.00 63 1012.5
20260504080435 54 345 0.9 1.7 0.00 0.00 0.00 64 1012.7
20260504070403 52 331 0.0 1.7 0.00 0.00 0.00 65 1012.9
20260504050749 48 66 0.0 1.7 0.00 0.00 0.00 73 1013.0
20260504050247 48 359 0.9 0.9 0.00 0.00 0.00 73 1012.9
20260504045739 48 32 0.0 0.9 0.00 0.00 0.00 73 1012.8
20260504045233 48 55 0.0 0.9 0.00 0.00 0.00 73 1012.8
20260504044731 48 26 0.0 0.9 0.00 0.00 0.00 73 1013.1
20260504044228 48 56 0.9 0.9 0.00 0.00 0.00 72 1013.0
20260504043725 48 99 0.0 1.7 0.00 0.00 0.00 72 1012.9
20260504043222 48 46 0.0 1.7 0.00 0.00 0.00 71 1012.8
20260504042720 48 70 0.0 1.7 0.00 0.00 0.00 70 1012.8
20260504042216 47 81 0.9 1.7 0.00 0.00 0.00 72 1012.9